Abbeville, LA

8:32 PM CST on January 20, 2017 (GMT -0600)
Abbeville

Weather History for KIYA - October, 2012

Change the Weather History Date:

Thursday, October 11, 2012

  Actual Average (K7R4) Record (K7R4)
Temperature  
Mean Temperature 76 °F -  
Max Temperature 88 °F 76 °F 84 °F (2014)
Min Temperature 63 °F 65 °F 50 °F (2000)
Cooling Degree Days 10    
Growing Degree Days 26 (Base 50)    
Moisture  
Dew Point 67 °F    
Average Humidity 82    
Maximum Humidity 100    
Minimum Humidity 45    
Precipitation  
Precipitation 0.00 in - - ()
Sea Level Pressure  
Sea Level Pressure 30.17 in    
Wind  
Wind Speed 2 mph ()    
Max Wind Speed 9 mph    
Max Gust Speed -    
Visibility 6.5 miles    
Events Fog    
Averages and records for this station are not official NWS values.
T = Trace of Precipitation, MM = Missing Value Source: Averaged Metar Reports

Daily Weather History Graph

Daily Weather History Graph

Search for Another Location

Airport or City:

Trip Planner

Search our weather history database for the weather conditions in past years. The results will help you decide how hot, cold, wet, or windy it might be!

Date:

Astronomy

Oct. 11, 2012 Rise Set
Actual Time 7:07 AM CDT 6:41 PM CDT
Civil Twilight 6:43 AM CDT 7:05 PM CDT
Nautical Twilight 6:16 AM CDT 7:33 PM CDT
Astronomical Twilight 5:48 AM CDT 8:00 PM CDT
Moon 3:03 AM CDT (10/11) 4:03 PM CDT (10/11)
Length of Visible Light 12h 21m
Length of Day
11h 33m
Waning Crescent, 18% of the Moon is Illuminated
Oct 11
Waning Crescent
Oct 15
New
Oct 21
First Quarter
Oct 29
Full
Nov 6
Last Quarter

Hourly Weather History & Observations

Time (CDT) Temp. Heat Index Dew Point Humidity Pressure Visibility Wind Dir Wind Speed Gust Speed Precip Events Conditions
12:15 AM 66.7 °F - 66.7 °F 100% 30.14 in 0.2 mi Calm Calm - N/A Fog Fog
12:35 AM 66.4 °F - 66.4 °F 100% 30.14 in 0.2 mi Calm Calm - N/A Fog Fog
1:35 AM 66.2 °F - 66.2 °F 100% 30.14 in 0.2 mi Calm Calm - N/A Fog Fog
1:55 AM 66.4 °F - 66.4 °F 100% 30.14 in 0.2 mi Calm Calm - N/A Fog Fog
2:15 AM 66.6 °F - 66.6 °F 100% 30.14 in 0.2 mi Calm Calm - N/A Fog Fog
2:55 AM 68.0 °F - 68.0 °F 100% 30.14 in 0.2 mi Calm Calm - N/A Fog Fog
3:15 AM 68.2 °F - 68.2 °F 100% 30.14 in 0.2 mi Calm Calm - N/A Fog Fog
3:35 AM 68.2 °F - 68.2 °F 100% 30.13 in 0.2 mi Calm Calm - N/A Fog Fog
3:55 AM 68.0 °F - 68.0 °F 100% 30.13 in 0.2 mi Calm Calm - N/A Fog Fog
4:15 AM 68.0 °F - 68.0 °F 100% 30.13 in 0.2 mi Calm Calm - N/A Fog Fog
4:35 AM 67.5 °F - 67.5 °F 100% 30.13 in 0.2 mi Calm Calm - N/A Fog Fog
4:55 AM 67.5 °F - 67.5 °F 100% 30.14 in 0.2 mi Calm Calm - N/A Fog Fog
5:15 AM 66.9 °F - 66.9 °F 100% 30.14 in 0.5 mi Calm Calm - N/A Fog Fog
5:35 AM 66.2 °F - 66.2 °F 100% 30.14 in 0.2 mi Calm Calm - N/A Fog Fog
5:55 AM 65.5 °F - 65.5 °F 100% 30.15 in 0.5 mi Calm Calm - N/A Fog Fog
6:15 AM 64.4 °F - 64.4 °F 100% 30.16 in 0.2 mi Calm Calm - N/A Fog Fog
6:35 AM 64.2 °F - 64.2 °F 100% 30.17 in 0.5 mi Calm Calm - N/A Fog Fog
6:55 AM 63.9 °F - 63.9 °F 100% 30.17 in 0.5 mi Calm Calm - N/A Fog Fog
7:15 AM 65.3 °F - 65.3 °F 100% 30.17 in 0.2 mi ENE 3.5 mph - N/A Fog Fog
7:35 AM 65.3 °F - 65.3 °F 100% 30.17 in 0.2 mi Calm Calm - N/A Fog Fog
7:55 AM 66.6 °F - 66.6 °F 100% 30.18 in 1.2 mi NE 3.5 mph - N/A   Mist
8:15 AM 68.4 °F - 68.4 °F 100% 30.18 in 5.0 mi ENE 3.5 mph - N/A   Clear
8:35 AM 69.8 °F - 69.8 °F 100% 30.19 in 10.0 mi Calm Calm - N/A   Clear
8:55 AM 70.7 °F - 70.7 °F 100% 30.20 in 10.0 mi ENE 3.5 mph - N/A   Clear
9:15 AM 71.6 °F - 71.6 °F 100% 30.21 in 10.0 mi East 4.6 mph - N/A   Clear
9:35 AM 72.9 °F - 72.9 °F 100% 30.22 in 10.0 mi East 4.6 mph - N/A   Clear
9:55 AM 78.1 °F - 69.3 °F 74% 30.22 in 10.0 mi East 5.8 mph - N/A   Clear
10:15 AM 79.9 °F - 68.2 °F 67% 30.22 in 10.0 mi ESE 8.1 mph - N/A   Clear
10:35 AM 81.5 °F 84.4 °F 68.2 °F 64% 30.23 in 10.0 mi East 4.6 mph - N/A   Clear
10:55 AM 82.8 °F 86.0 °F 68.4 °F 62% 30.22 in 10.0 mi East 4.6 mph - N/A   Clear
11:15 AM 83.3 °F 85.9 °F 67.3 °F 58% 30.22 in 10.0 mi SE 3.5 mph - N/A   Clear
11:35 AM 84.4 °F 86.6 °F 65.8 °F 54% 30.22 in 10.0 mi SE 5.8 mph - N/A   Clear
11:55 AM 85.1 °F 87.1 °F 65.7 °F 52% 30.21 in 10.0 mi ESE 6.9 mph - N/A   Clear
12:15 PM 85.5 °F 87.4 °F 65.5 °F 51% 30.20 in 10.0 mi ESE 4.6 mph - N/A   Clear
12:55 PM 87.1 °F 88.9 °F 65.1 °F 48% 30.19 in 10.0 mi East 6.9 mph - N/A   Clear
1:15 PM 87.8 °F 89.7 °F 65.1 °F 47% 30.18 in 10.0 mi SE 8.1 mph - N/A   Scattered Clouds
1:35 PM 88.0 °F 89.3 °F 64.0 °F 45% 30.17 in 10.0 mi SE 8.1 mph - N/A   Scattered Clouds
1:55 PM 88.2 °F 89.9 °F 64.8 °F 46% 30.16 in 10.0 mi ESE 6.9 mph - N/A   Clear
2:15 PM 87.8 °F 89.4 °F 64.4 °F 46% 30.15 in 10.0 mi East 8.1 mph - N/A   Clear
2:35 PM 88.2 °F 89.6 °F 64.2 °F 45% 30.15 in 10.0 mi ENE 6.9 mph - N/A   Clear
2:55 PM 88.2 °F 90.6 °F 66.0 °F 48% 30.15 in 10.0 mi SE 5.8 mph - N/A   Clear
3:15 PM 88.7 °F 91.1 °F 66.0 °F 47% 30.15 in 10.0 mi SE 9.2 mph - N/A   Scattered Clouds
3:35 PM 87.4 °F 89.8 °F 66.0 °F 49% 30.15 in 10.0 mi South 9.2 mph - N/A   Clear
3:55 PM 86.9 °F 89.3 °F 66.0 °F 50% 30.15 in 10.0 mi South 6.9 mph - N/A   Clear
4:15 PM 86.4 °F 88.7 °F 66.2 °F 51% 30.14 in 10.0 mi SSE 9.2 mph - N/A   Clear
4:35 PM 86.0 °F 88.5 °F 66.7 °F 52% 30.14 in 10.0 mi SSE 8.1 mph - N/A   Clear
5:15 PM 84.7 °F 87.4 °F 66.9 °F 55% 30.14 in 10.0 mi SSE 8.1 mph - N/A   Clear
5:35 PM 83.7 °F 86.5 °F 67.5 °F 58% 30.14 in 10.0 mi SSE 5.8 mph - N/A   Clear
5:55 PM 82.4 °F 85.4 °F 68.0 °F 62% 30.14 in 10.0 mi SE 4.6 mph - N/A   Clear
6:35 PM 79.0 °F - 69.6 °F 73% 30.16 in 10.0 mi South 5.8 mph - N/A   Clear
6:55 PM 77.5 °F - 69.4 °F 76% 30.16 in 10.0 mi South 4.6 mph - N/A   Clear
7:15 PM 75.4 °F - 69.6 °F 82% 30.16 in 10.0 mi Calm Calm - N/A   Clear
7:35 PM 74.3 °F - 69.8 °F 86% 30.16 in 10.0 mi South 3.5 mph - N/A   Clear
8:15 PM 73.9 °F - 69.8 °F 87% 30.17 in 10.0 mi Calm Calm - N/A   Clear
8:35 PM 73.4 °F - 70.2 °F 90% 30.17 in 10.0 mi Calm Calm - N/A   Scattered Clouds
8:55 PM 71.1 °F - 70.0 °F 96% 30.18 in 10.0 mi Calm Calm - N/A   Clear
9:15 PM 70.5 °F - 70.0 °F 98% 30.18 in 10.0 mi Calm Calm - N/A   Clear
9:35 PM 69.8 °F - 69.8 °F 100% 30.19 in 10.0 mi Calm Calm - N/A   Clear
9:55 PM 68.5 °F - 68.5 °F 100% 30.20 in 10.0 mi Calm Calm - N/A   Clear
10:35 PM 67.5 °F - 67.5 °F 100% 30.20 in 7.0 mi Calm Calm - N/A   Clear
10:55 PM 68.5 °F - 68.5 °F 100% 30.19 in 7.0 mi ENE 3.5 mph - N/A   Clear
11:15 PM 68.5 °F - 68.5 °F 100% 30.19 in 7.0 mi Calm Calm - N/A   Clear
11:35 PM 68.9 °F - 68.9 °F 100% 30.19 in 5.0 mi Calm Calm - N/A   Clear
11:55 PM 68.9 °F - 68.9 °F 100% 30.18 in 10.0 mi Calm Calm - N/A   Clear